FW3884 Weather Reports


time (UTC)temp
F
wind
direction
speed
knots
gust
knots
rain 1hr
in
rain 24hr
in
rain mn
in
humidity
%
barometer
mb
20260503021522 41 0.0 0.0 0.00 0.00 0.00 68 1013.3
20260503020017 41 0.0 0.0 0.00 0.00 0.00 65 1013.2
20260503014515 42 0.0 0.0 0.00 0.00 0.00 65 1013.3
20260503013013 43 0.0 0.0 0.00 0.00 0.00 67 1013.0
20260503011613 43 0.0 0.0 0.00 0.00 0.00 64 1013.0
20260503010011 44 0.0 0.0 0.00 0.00 0.00 62 1012.9
20260503004511 44 0.0 0.0 0.00 0.00 0.00 60 1012.7
20260503003009 45 0.0 0.0 0.00 0.00 0.00 59 1012.6
20260503001512 46 0.0 0.0 0.00 0.00 0.00 58 1012.3
20260503000008 47 0.0 0.0 0.00 0.00 0.00 55 1012.1
20260502234508 47 0.0 0.0 0.00 0.00 0.00 53 1011.8
20260502233007 48 0.0 0.0 0.00 0.00 0.00 52 1011.1
20260502231507 50 0.0 0.0 0.00 0.00 0.00 52 1011.1
20260502230016 51 0.0 0.0 0.00 0.00 0.00 49 1011.2
20260502224507 51 0.0 0.0 0.00 0.00 0.00 49 1011.1
20260502223006 51 0.0 0.0 0.00 0.00 0.00 50 1011.0
20260502221506 52 0.0 0.0 0.00 0.00 0.00 47 1010.8
20260502220006 53 0.0 0.0 0.00 0.00 0.00 49 1010.7
20260502214504 54 0.0 0.0 0.00 0.00 0.00 48 1010.6
20260502213004 55 0.0 0.0 0.00 0.00 0.00 45 1010.5
20260502211507 55 0.0 0.0 0.00 0.00 0.00 45 1010.4
20260502210005 58 0.0 0.0 0.00 0.00 0.00 43 1010.1
20260502204502 59 0.0 0.0 0.00 0.00 0.00 40 1009.9
20260502203002 60 0.0 0.0 0.00 0.00 0.00 39 1009.8
20260502201502 59 0.0 0.0 0.00 0.00 0.00 41 1010.0
20260502200100 59 0.0 0.0 0.00 0.00 0.00 42 1010.1
20260502194558 59 0.0 0.0 0.00 0.00 0.00 43 1010.3
20260502193104 60 0.0 0.0 0.00 0.00 0.00 42 1010.4
20260502191602 59 0.0 0.0 0.00 0.00 0.00 40 1010.4
20260502190109 59 0.0 0.0 0.00 0.00 0.00 42 1010.5
20260502184600 59 0.0 0.0 0.00 0.00 0.00 43 1010.5
20260502183108 59 0.0 0.0 0.00 0.00 0.00 40 1010.7
20260502181548 57 0.0 0.0 0.00 0.00 0.00 43 1010.9
20260502163032 52 0.0 0.0 0.00 0.00 0.00 48 1012.6
20260502161530 51 0.0 0.0 0.00 0.00 0.00 48 1012.6
20260502151523 46 0.0 0.0 0.00 0.00 0.00 59 1012.7
20260502123021 42 0.0 0.0 0.00 0.00 0.00 63 1011.8
20260502121515 42 0.0 0.0 0.00 0.00 0.00 63 1011.5
20260502114512 42 0.0 0.0 0.00 0.00 0.00 64 1011.9
20260502113011 42 0.0 0.0 0.00 0.00 0.00 64 1011.5
20260502111516 42 0.0 0.0 0.00 0.00 0.00 66 1011.4
20260502110012 42 0.0 0.0 0.00 0.00 0.00 70 1011.3
20260502104504 42 0.0 0.0 0.00 0.00 0.00 74 1011.2
20260502103003 43 0.0 0.0 0.00 0.00 0.00 76 1011.3
20260502101502 43 0.0 0.0 0.00 0.00 0.00 78 1011.5
20260502090113 43 0.0 0.0 0.00 0.00 0.00 83 1011.7
20260502070049 45 0.0 0.0 0.00 0.00 0.00 79 1011.2
20260502064543 45 0.0 0.0 0.00 0.00 0.00 79 1011.5
20260502063042 46 0.0 0.0 0.00 0.00 0.00 79 1011.8
20260502061542 46 0.0 0.0 0.00 0.00 0.00 80 1011.9
20260502060038 46 0.0 0.0 0.00 0.00 0.00 80 1012.0
20260502054536 47 0.0 0.0 0.00 0.00 0.00 81 1011.9
20260502053036 47 0.0 0.0 0.00 0.00 0.00 81 1011.9
20260502051543 47 0.0 0.0 0.00 0.00 0.00 80 1011.8
20260502050037 48 0.0 0.0 0.00 0.00 0.00 80 1012.0
20260502044531 48 0.0 0.0 0.00 0.00 0.00 80 1012.1
20260502043028 48 0.0 0.0 0.00 0.00 0.00 79 1012.4
20260502041533 49 0.0 0.0 0.00 0.00 0.00 80 1012.3
20260502040024 49 0.0 0.0 0.00 0.00 0.00 82 1012.3
20260502034522 49 0.0 0.0 0.00 0.00 0.00 84 1012.2
20260502033026 50 0.0 0.0 0.00 0.00 0.00 84 1012.4
20260502031522 50 0.0 0.0 0.00 0.00 0.00 83 1012.0
20260502030022 50 0.0 0.0 0.00 0.00 0.00 82 1012.1
20260502024520 50 0.0 0.0 0.00 0.00 0.00 81 1012.0
20260502023020 51 0.0 0.0 0.00 0.00 0.00 80 1012.0